Find Starlink 3702

NORAD ID: 52100 Int'l Des: 2022-029 Owner: SPXS Country: US Constellation: starlink operational
LEOCIRCULAR

現在のビュー

3D地球を読み込み中...

About Starlink 3702

Starlink 3702 (NORAD 52100) is a starlink constellation satellite (v1.5) launched Mar 19, 2022 by SPXS of US. It operates in LEO, CIRCULAR orbit with a mass of 297.00 kg.

Starlink 3702について

説明を読み込み中...

次回通過

Passes for default location (London). Set your location on the main map for personalized predictions.

高度履歴

Loading altitude history...

軌道要素

1 52100U 22029N 26173.83335648 .00074484 00000-0 31196-2 0 9991
2 52100 53.1611 336.4928 0001684 78.2893 76.4449 15.22891437 5830
Epoch: Jun 22, 2026 • Age: 14 hours

現在のステータス

高度 501.0 km
速度 7.62 km/s
衛星直下点 47.52°N, 30.14°W
打ち上げ日 Mar 19, 2022
運用期間 4.2 years
タイプ internet

技術仕様

分類 Payload
質量 297.00 kg
乾燥質量 275.00 kg
総質量 297.00 kg
長さ 0.20 m
直径 2.80 m
スパン 9.00 m
形状 Box + pan
製造者 SPXS
バスタイプ Starlink
フェーズステータス In Orbit
所有者/国 SPXS/US

Most Searched